EJM65 KFTY-KMBT

Flight info

Callsign EJM65
Flight time 0h 40m
Altitude 14000
Route NOONE JILIS LENSE SWFFT
Aircraft CL60/M-SADE3FGHIJ3J4J7P2RWXY/HB1D1

Departure

Time 2026-05-08 16:13
Airport Fulton County Airport Brown Field (KFTY)

Arrival

Time 2026-05-08 16:53
Airport City of Murfreesboro Airport (KMBT)
Time Latitude Longitude Altitude Speed Heading
2026-05-08 16:13 33.80400 -84.64912 9022 ft 287 kts 353°
2026-05-08 16:13 33.82377 -84.64678 10208 ft 295 kts 19°
2026-05-08 16:13 33.84390 -84.63707 10634 ft 331 kts 24°
2026-05-08 16:13 33.86606 -84.62512 11067 ft 361 kts 24°
2026-05-08 16:14 33.88829 -84.61001 11825 ft 376 kts 39°
2026-05-08 16:14 33.90586 -84.58643 12696 ft 386 kts 53°
2026-05-08 16:14 33.92395 -84.56207 13499 ft 394 kts 38°
2026-05-08 16:14 33.94727 -84.54542 13911 ft 392 kts 16°
2026-05-08 16:15 33.97355 -84.54015 14020 ft 379 kts 352°
2026-05-08 16:15 33.99936 -84.54349 13984 ft 367 kts 346°
2026-05-08 16:15 34.02460 -84.54736 13993 ft 362 kts 346°
2026-05-08 16:15 34.04961 -84.55113 14001 ft 360 kts 346°
2026-05-08 16:16 34.07452 -84.55489 13998 ft 359 kts 345°
2026-05-08 16:16 34.09946 -84.55866 13993 ft 358 kts 345°
2026-05-08 16:16 34.12393 -84.56234 13998 ft 357 kts 345°
2026-05-08 16:16 34.14870 -84.56609 14003 ft 357 kts 345°
2026-05-08 16:17 34.17344 -84.56982 14001 ft 357 kts 345°
2026-05-08 16:17 34.19757 -84.57467 14006 ft 350 kts 337°
2026-05-08 16:17 34.21923 -84.58673 14003 ft 340 kts 323°
2026-05-08 16:17 34.23946 -84.60170 14007 ft 339 kts 322°
2026-05-08 16:18 34.25947 -84.61642 14013 ft 340 kts 322°
2026-05-08 16:18 34.27972 -84.63133 14014 ft 339 kts 322°
2026-05-08 16:18 34.29984 -84.64616 14011 ft 339 kts 322°
2026-05-08 16:18 34.32006 -84.66106 14022 ft 339 kts 322°
2026-05-08 16:19 34.34032 -84.67601 14008 ft 340 kts 322°
2026-05-08 16:19 34.36043 -84.69084 14006 ft 340 kts 322°
2026-05-08 16:19 34.38052 -84.70564 14008 ft 340 kts 322°
2026-05-08 16:19 34.40078 -84.72061 14007 ft 340 kts 322°
2026-05-08 16:20 34.42096 -84.73553 14002 ft 340 kts 322°
2026-05-08 16:20 34.44125 -84.75053 14006 ft 340 kts 322°
2026-05-08 16:20 34.46122 -84.76529 14011 ft 340 kts 322°
2026-05-08 16:20 34.48150 -84.78030 14008 ft 340 kts 322°
2026-05-08 16:21 34.50187 -84.79537 14009 ft 340 kts 322°
2026-05-08 16:21 34.52188 -84.81017 14015 ft 340 kts 322°
2026-05-08 16:21 34.54210 -84.82515 14008 ft 341 kts 322°
2026-05-08 16:21 34.56237 -84.84019 14009 ft 341 kts 322°
2026-05-08 16:22 34.58271 -84.85528 14017 ft 340 kts 322°
2026-05-08 16:22 34.60289 -84.87026 14005 ft 340 kts 322°
2026-05-08 16:22 34.62298 -84.88517 14012 ft 340 kts 322°
2026-05-08 16:22 34.64331 -84.90028 14013 ft 340 kts 322°
2026-05-08 16:23 34.66331 -84.91518 14011 ft 340 kts 322°
2026-05-08 16:23 34.68361 -84.93028 14009 ft 341 kts 322°
2026-05-08 16:23 34.70367 -84.94521 14007 ft 341 kts 322°
2026-05-08 16:23 34.72402 -84.96036 14016 ft 340 kts 322°
2026-05-08 16:24 34.74416 -84.97537 14012 ft 341 kts 323°
2026-05-08 16:24 34.76446 -84.99052 14015 ft 341 kts 323°
2026-05-08 16:24 34.78468 -85.00560 14019 ft 341 kts 323°
2026-05-08 16:24 34.80480 -85.02062 14011 ft 341 kts 323°
2026-05-08 16:25 34.82511 -85.03580 14021 ft 341 kts 323°
2026-05-08 16:25 34.84510 -85.05073 14016 ft 341 kts 323°
2026-05-08 16:25 34.86549 -85.06598 14012 ft 341 kts 323°
2026-05-08 16:25 34.88549 -85.08094 14011 ft 341 kts 323°
2026-05-08 16:26 34.90583 -85.09617 14011 ft 341 kts 323°
2026-05-08 16:26 34.92610 -85.11136 14010 ft 341 kts 323°
2026-05-08 16:26 34.94614 -85.12638 14011 ft 341 kts 322°
2026-05-08 16:26 34.96443 -85.14420 14012 ft 334 kts 309°
2026-05-08 16:27 34.98002 -85.16513 14011 ft 333 kts 308°
2026-05-08 16:27 34.99565 -85.18618 14005 ft 333 kts 308°
2026-05-08 16:27 35.01125 -85.20716 14012 ft 333 kts 308°
2026-05-08 16:27 35.02685 -85.22816 14011 ft 333 kts 308°
2026-05-08 16:28 35.04229 -85.24896 14018 ft 334 kts 308°
2026-05-08 16:28 35.05790 -85.26998 14019 ft 334 kts 308°
2026-05-08 16:28 35.07354 -85.29106 14020 ft 334 kts 308°
2026-05-08 16:28 35.08907 -85.31201 14019 ft 334 kts 308°
2026-05-08 16:29 35.10464 -85.33302 14014 ft 334 kts 308°
2026-05-08 16:29 35.12026 -85.35407 14020 ft 334 kts 308°
2026-05-08 16:29 35.13589 -85.37515 14021 ft 334 kts 308°
2026-05-08 16:29 35.15135 -85.39601 14018 ft 334 kts 308°
2026-05-08 16:30 35.16734 -85.41685 14021 ft 335 kts 310°
2026-05-08 16:30 35.18350 -85.43739 14022 ft 336 kts 310°
2026-05-08 16:30 35.19972 -85.45806 14023 ft 336 kts 310°
2026-05-08 16:30 35.21574 -85.47844 14017 ft 336 kts 310°
2026-05-08 16:31 35.23184 -85.49896 14014 ft 336 kts 310°
2026-05-08 16:31 35.24803 -85.51962 14015 ft 336 kts 310°
2026-05-08 16:31 35.26431 -85.54043 14018 ft 335 kts 310°
2026-05-08 16:31 35.28029 -85.56088 14020 ft 335 kts 310°
2026-05-08 16:32 35.29645 -85.58154 14014 ft 335 kts 310°
2026-05-08 16:32 35.31242 -85.60196 14019 ft 335 kts 310°
2026-05-08 16:32 35.32863 -85.62271 14015 ft 335 kts 310°
2026-05-08 16:32 35.34481 -85.64339 14019 ft 335 kts 310°
2026-05-08 16:33 35.36098 -85.66410 14015 ft 336 kts 309°
2026-05-08 16:33 35.37712 -85.68477 14014 ft 336 kts 309°
2026-05-08 16:33 35.39309 -85.70525 14013 ft 336 kts 309°
2026-05-08 16:33 35.40928 -85.72601 14010 ft 335 kts 309°
2026-05-08 16:34 35.42536 -85.74667 13997 ft 336 kts 309°
2026-05-08 16:34 35.44146 -85.76733 14001 ft 335 kts 309°
2026-05-08 16:34 35.45757 -85.78804 14000 ft 336 kts 309°
2026-05-08 16:34 35.47371 -85.80879 13992 ft 336 kts 309°
2026-05-08 16:35 35.48986 -85.82954 13989 ft 336 kts 309°
2026-05-08 16:35 35.50584 -85.85013 13991 ft 336 kts 309°
2026-05-08 16:35 35.52199 -85.87093 13993 ft 336 kts 309°
2026-05-08 16:35 35.53797 -85.89154 13993 ft 336 kts 309°
2026-05-08 16:36 35.55452 -85.91190 13993 ft 336 kts 315°
2026-05-08 16:36 35.57359 -85.92902 13978 ft 341 kts 320°
2026-05-08 16:36 35.59288 -85.94546 13982 ft 339 kts 320°
2026-05-08 16:36 35.61194 -85.96169 13764 ft 320 kts 320°
2026-05-08 16:37 35.62963 -85.97673 13419 ft 297 kts 320°
2026-05-08 16:37 35.64604 -85.99072 13073 ft 280 kts 320°
2026-05-08 16:37 35.66180 -86.00425 12717 ft 274 kts 319°
2026-05-08 16:37 35.67724 -86.01756 12357 ft 273 kts 320°
2026-05-08 16:38 35.69275 -86.03089 11990 ft 271 kts 319°
2026-05-08 16:38 35.70831 -86.04430 11634 ft 269 kts 320°
2026-05-08 16:38 35.72368 -86.05754 11275 ft 268 kts 320°
2026-05-08 16:38 35.73886 -86.07063 10931 ft 269 kts 320°
2026-05-08 16:39 35.75425 -86.08389 10584 ft 271 kts 320°
2026-05-08 16:39 35.76959 -86.09712 10212 ft 268 kts 321°
2026-05-08 16:39 35.78475 -86.11019 9848 ft 266 kts 321°
2026-05-08 16:39 35.79975 -86.12315 9501 ft 265 kts 321°
2026-05-08 16:40 35.81490 -86.13624 9146 ft 265 kts 322°
2026-05-08 16:40 35.82995 -86.14925 8796 ft 265 kts 322°
2026-05-08 16:40 35.84505 -86.16230 8443 ft 266 kts 322°
2026-05-08 16:40 35.86026 -86.17548 8093 ft 264 kts 323°
2026-05-08 16:41 35.87511 -86.18832 7752 ft 262 kts 323°
2026-05-08 16:41 35.88995 -86.20116 7401 ft 259 kts 323°
2026-05-08 16:41 35.90462 -86.21388 7056 ft 255 kts 323°
2026-05-08 16:42 35.93320 -86.23867 6389 ft 248 kts 324°
2026-05-08 16:42 35.94727 -86.25089 6063 ft 245 kts 324°
2026-05-08 16:42 35.96102 -86.26284 5747 ft 242 kts 324°
2026-05-08 16:42 35.97468 -86.27471 5419 ft 239 kts 324°
2026-05-08 16:43 35.98822 -86.28648 5105 ft 236 kts 324°
2026-05-08 16:43 36.00152 -86.29805 4802 ft 232 kts 324°
2026-05-08 16:43 36.01460 -86.30943 4480 ft 230 kts 324°
2026-05-08 16:43 36.02769 -86.32082 4183 ft 227 kts 324°
2026-05-08 16:44 36.04057 -86.33204 3875 ft 226 kts 324°
2026-05-08 16:44 36.05336 -86.34317 3587 ft 224 kts 324°
2026-05-08 16:44 36.06595 -86.35416 3278 ft 224 kts 324°
2026-05-08 16:44 36.07863 -86.36520 3015 ft 221 kts 324°
2026-05-08 16:45 36.09056 -86.37627 2981 ft 208 kts 319°
2026-05-08 16:45 36.10172 -86.38814 2955 ft 211 kts 319°
2026-05-08 16:45 36.11275 -86.39989 2952 ft 212 kts 319°
2026-05-08 16:45 36.12407 -86.41193 2953 ft 213 kts 319°
2026-05-08 16:46 36.13542 -86.42398 2953 ft 214 kts 320°
2026-05-08 16:46 36.14852 -86.43205 2956 ft 214 kts 355°
2026-05-08 16:46 36.16257 -86.42799 2952 ft 211 kts 33°
2026-05-08 16:46 36.17255 -86.41513 2955 ft 209 kts 64°
2026-05-08 16:47 36.17574 -86.39784 2958 ft 207 kts 95°
2026-05-08 16:47 36.17128 -86.38114 2959 ft 205 kts 126°
2026-05-08 16:47 36.16042 -86.37011 2983 ft 203 kts 159°
2026-05-08 16:47 36.14661 -86.36726 3003 ft 205 kts 179°
2026-05-08 16:48 36.13225 -86.36723 2999 ft 205 kts 180°
2026-05-08 16:48 36.11794 -86.36714 2999 ft 205 kts 179°
2026-05-08 16:48 36.10359 -86.36703 3000 ft 205 kts 179°
2026-05-08 16:48 36.08921 -86.36691 3000 ft 205 kts 179°
2026-05-08 16:49 36.07515 -86.36721 3001 ft 199 kts 182°
2026-05-08 16:49 36.06172 -86.36787 3020 ft 187 kts 182°
2026-05-08 16:49 36.04877 -86.36855 3011 ft 186 kts 182°
2026-05-08 16:49 36.03594 -86.36921 3001 ft 185 kts 182°
2026-05-08 16:50 36.02307 -86.36989 3001 ft 185 kts 182°
2026-05-08 16:50 36.01014 -86.37057 2996 ft 185 kts 182°
2026-05-08 16:50 35.99719 -86.37125 2750 ft 186 kts 182°
2026-05-08 16:50 35.98432 -86.37193 2537 ft 183 kts 182°
2026-05-08 16:51 35.97176 -86.37259 2305 ft 181 kts 182°
2026-05-08 16:51 35.95914 -86.37325 2075 ft 179 kts 182°
2026-05-08 16:51 35.94692 -86.37389 1822 ft 169 kts 182°
2026-05-08 16:51 35.93577 -86.37449 1608 ft 149 kts 182°
2026-05-08 16:52 35.92621 -86.37500 1469 ft 129 kts 182°
2026-05-08 16:52 35.91737 -86.37547 1277 ft 125 kts 182°
2026-05-08 16:52 35.90897 -86.37590 1126 ft 117 kts 182°
2026-05-08 16:52 35.90026 -86.37635 895 ft 128 kts 182°
2026-05-08 16:53 35.88314 -86.37720 618 ft 120 kts 182°
2026-05-08 16:53 35.87641 -86.37756 619 ft 46 kts 182°
2026-05-08 16:53 35.87393 -86.37771 620 ft 16 kts 182°
2026-05-08 16:54 35.87265 -86.37778 620 ft 20 kts 182°
2026-05-08 16:54 35.87227 -86.37849 619 ft 10 kts 315°
2026-05-08 16:54 35.87315 -86.37856 619 ft 14 kts
2026-05-08 16:54 35.87429 -86.37851 619 ft 18 kts
2026-05-08 16:55 35.87536 -86.37862 619 ft 12 kts 309°
2026-05-08 16:55 35.87613 -86.37946 617 ft 17 kts 314°
2026-05-08 16:55 35.87676 -86.38028 616 ft 8 kts 350°
2026-05-08 16:55 35.87693 -86.38029 616 ft 0 kts 359°